Location: Remedello Sotto
(45.2500°N, 10.3667°E)
Time: 11:12:54
(UTC+00:00)

Cosmos 2315 Rocket - Pass Details

Date: 03 February 2023
Orbit: 965 x 1002 km, 82.9° (Epoch: 30 March)

Event Time Altitude Azimuth Distance (km) Brightness Sun altitude
Rises 18:46:43 0° 176° (S) 3,686 7.0 -24.6°
Reaches altitude 10° 18:49:14 10° 174° (S) 2,747 6.3 -25.0°
Maximum altitude 18:55:28 65° 93° (E) 1,090 3.9 -26.1°
Drops below altitude 10° 19:01:47 10° 14° (NNE) 2,783 6.3 -27.2°
Sets 19:04:20 0° 11° (NNE) 3,739 7.0 -27.7°
